SCP
0 0 0 0 0 0 0 0 0 0 0 0 0 0 0 0 0 0 0 0 0 0 0 0 0 0 0 0 0 0 -0 -0 0 0 0 0 -0 -0
0 0 0 0 0 0 0 0 0 0 0 0 0 0 0 0 0 0 0 0 0 0 0 0 0 0 0 0 0 0 0 0 0 0 -0 -0 0 0
0 0 0 0 0 0 0 0 0 0 0 0 0 0 0 0 0 0 0 0 0 0 0 0 0 -0 0 0 0 -0 0 0 0 0 0 0 0 0
0 0 0 0 0 0 0 0 0 0 0 0 0 0 0 0 0 0 0 0 0 0 0 0 0 0 0 0 0 0 0 -0 -0 0 0 0 0 0
0 0 0 0 0 0 0 0 0 0 0 0 0 0 0 0 0 0 0 0 0 0 0 0 0 0 0 0 0 0 0 0 0 0 0 0 0 -0
0 0 0 0 0 0 0 0 0 0 0 0 0 0 0 0 0 0 0 0 0 0 0 0 0 0 0 0 0 0 0 0 0 0 0 0 0 0
0 0 0 0 0 0 0 0 0 0 0 0 0 0 0 0 0 0 0 0 0 0 0 0 0 0 0 0 0 0 0 0 0 0 0 0 0 -0
0 0 0 0 0 0 0 -0 -0 0 0 0 0 0 0 0 0 0 0 0 0 0 0 0 0 0 0 0 0 0 0 0 0 0 0 0 -0 0
0 0 0 0 0 0 -0 0 -0 0 0 0 0 0 0 0 0 0 0 0 0 0 0 0 0 0 0 0 0 0 0 0 0 0 -0 -0 -0 -0
0 0 0 0 0 0 0 0 0 0 0 0 0 0 0 0 0 0 0 0 0 0 0 0 0 0 0 0 0 0 0 0 0 0 -0 0 0 0
0 0 0 0 0 0 0 0 0 0 0 0 0 0 0 0 0 0 0 0 0 0 0 0 0 0 0 0 0 0 0 -0 -0 -0 0 0 0 0
0 0 0 0 0 0 0 0 0 0 0 0 0 0 0 0 0 0 0 0 0 0 0 0 0 0 0 0 0 0 -0 -0 -0 0 0 0 0 0
0 0 0 0 0 0 0 0 0 0 0 0 0 0 0 0 0 0 0 0 0 0 0 0 0 0 0 0 0 0 0 -0 -0 -0 0 0 0 0
0 0 0 0 0 0 0 0 0 0 0 0 0 0 0 0 0 0 0 0 0 0 0 0 0 0 0 0 0 0 0 0 0 0 0 0 0 0
0 0 0 0 0 0 -0 0 0 0 0 0 0 0 0 0 0 0 0 0 0 0 0 0 0 0 0 0 0 0 0 0 0 0 0 0 0 0
0 0 0 0 0 0 0 0 0 0 0 0 0 0 0 0 0 0 0 0 0 0 0 0 0 0 0 0 0 0 0 0 0 0 0 0 0 0
0 0 0 0 0 0 0 0 0 0 0 0 0 0 0 0 0 0 0 0 0 0 0 0 0 0 0 0 0 -0 0 0 0 0 0 0 0 0
0 0 0 0 0 0 0 0 0 0 0 0 0 0 0 0 0 0 0 0 0 0 0 0 0 0 0 0 -0 -0 0 0 0 0 0 0 0 0
0 0 0 0 0 0 0 0 0 0 0 0 0 0 0 0 0 0 0 0 0 0 0 0 0 0 0 0 0 0 0 0 0 0 0 0 0 0
0 0 0 0 0 0 0 0 0 0 0 0 0 0 0 0 0 0 0 0 0 0 0 0 0 0 0 0 0 0 0 0 0 0 0 0 0 0
0 0 0 0 0 -0 0 0 0 0 0 0 0 0 0 0 0 0 0 0 0 0 0 0 0 0 0 0 0 0 0 0 0 0 0 0 0 0
0 0 -0 -0 -0 -0 0 0 0 0 0 0 0 0 0 0 0 0 0 0 0 0 0 0 0 0 0 0 0 0 0 0 0 0 0 0 0 0
-0 -0 0 0 0 -0 0 -0 0 0 0 0 0 0 0 0 0 0 0 0 0 0 0 0 0 0 0 0 0 0 0 0 0 0 0 0 0 0
Wind_Speed_500mb
27 31 30 28 27 27 28 26 21 19 17 14 11 14 19 27 21 24 25 25 23 25 28 30 28 30 29 31 30 35 42 34 25 23 24 25 25 26
29 29 27 24 24 25 25 25 21 20 16 12 12 9 19 21 26 21 23 23 23 27 29 29 31 38 36 31 32 40 36 29 25 26 25 24 24 23
27 25 21 22 22 22 23 23 20 20 21 18 15 13 21 24 26 29 22 22 25 26 27 30 35 39 41 34 39 37 27 27 27 25 25 24 22 24
22 22 19 20 23 22 24 24 23 19 14 16 17 17 23 23 25 30 25 23 24 25 28 27 33 37 34 35 39 32 28 24 29 26 23 22 24 24
17 16 15 20 24 23 22 22 28 25 17 15 15 20 25 28 33 33 30 24 24 25 29 29 34 36 35 37 33 31 27 28 26 26 24 22 22 22
19 14 15 19 22 22 21 21 26 29 22 16 15 24 28 31 30 32 32 25 26 30 33 34 35 27 27 32 36 32 29 28 27 26 24 24 24 23
24 18 17 17 17 19 22 23 29 27 26 20 20 28 32 36 33 34 41 32 30 36 38 41 38 34 32 36 34 34 29 28 24 24 24 26 26 25
21 18 19 18 19 21 21 24 28 26 29 27 27 33 39 39 37 37 40 40 40 38 44 43 34 37 36 37 34 33 29 30 25 28 27 27 27 25
18 17 18 18 18 25 24 22 25 24 21 19 25 34 38 43 40 38 39 42 45 46 42 39 47 40 37 34 34 32 30 27 23 29 29 29 28 28
19 19 16 13 18 27 26 23 24 22 20 21 17 19 26 37 44 38 43 37 36 45 43 49 43 38 38 33 31 29 29 29 26 30 30 31 31 29
23 20 17 12 13 20 23 20 19 18 20 22 20 18 17 31 44 38 43 42 43 45 52 50 52 44 42 35 32 35 34 36 31 32 34 33 31 31
28 23 21 15 15 18 17 14 16 21 20 22 25 24 25 31 35 34 38 45 42 45 51 52 49 46 38 38 37 38 40 41 37 37 37 34 32 36
32 22 22 21 16 16 16 13 12 16 18 17 27 29 32 34 38 40 39 36 37 49 52 52 49 48 40 23 40 36 38 38 37 36 35 35 37 39
27 21 21 18 18 19 20 17 18 18 19 19 22 34 40 38 38 36 36 36 35 38 33 53 52 52 50 46 31 31 37 35 35 35 35 35 38 39
21 18 18 19 19 19 19 21 21 21 20 24 28 32 38 40 37 34 31 32 39 34 37 24 49 41 46 44 36 22 24 33 31 31 30 33 35 36
23 19 16 18 18 18 22 26 23 21 17 24 26 30 31 35 38 41 41 31 37 33 34 39 28 38 42 39 37 25 21 16 20 23 24 27 28 30
25 21 19 19 18 20 22 28 27 22 13 18 24 31 33 37 39 41 42 40 42 35 33 34 35 36 35 32 43 34 29 29 27 25 31 32 29 30
24 21 21 22 21 20 28 37 30 24 17 18 18 23 30 33 35 35 37 35 33 35 30 29 26 33 40 34 41 42 36 34 31 34 36 37 38 28
18 20 22 25 26 28 34 36 33 27 20 16 18 27 32 34 32 33 35 33 35 36 35 32 32 38 38 40 28 32 35 32 34 38 38 44 43 36
13 13 14 17 22 28 37 40 34 31 23 17 16 25 35 35 35 34 37 32 26 24 27 32 35 36 34 24 29 31 32 31 30 34 35 38 45 43
11 10 11 12 16 23 27 34 38 34 22 18 22 18 28 34 36 36 38 34 31 26 21 20 23 22 28 31 41 30 20 24 28 33 36 43 49 54
11 9 9 9 14 17 25 23 25 23 18 17 25 23 18 24 26 28 31 33 32 29 22 21 18 21 29 35 38 39 36 30 31 36 41 47 54 63
14 11 11 10 16 24 23 21 23 19 14 14 25 29 23 24 25 25 26 25 27 33 30 25 25 30 33 36 42 44 47 41 42 44 41 38 46 60
Wind_Direction_500mb
241 250 252 252 253 251 250 258 260 259 279 272 257 222 203 202 202 190 192 198 207 207 200 198 192 197 192 195 188 182 186 173 183 184 178 180 178 174
246 245 248 245 246 244 245 250 254 246 253 263 255 229 200 186 186 179 181 194 195 193 195 194 184 190 190 195 184 183 184 183 184 177 181 178 177 173
239 239 237 243 239 240 242 243 244 240 250 248 241 222 199 193 189 173 176 178 186 188 185 186 187 180 184 194 177 177 182 184 181 181 182 179 174 180
227 229 228 236 239 245 245 242 231 231 235 229 222 203 189 195 195 183 183 173 177 181 179 176 176 174 182 181 176 177 184 189 186 182 186 177 178 188
199 205 231 239 240 253 243 235 222 211 215 220 215 198 189 189 191 196 188 175 173 175 171 170 176 182 194 177 182 183 190 186 188 186 185 183 187 194
201 221 235 253 250 243 239 224 207 204 209 213 211 200 194 184 188 190 173 180 176 169 170 167 172 181 185 175 182 189 193 191 190 194 197 197 201 201
217 231 253 253 246 236 223 216 204 205 207 209 208 198 196 187 190 187 191 184 175 173 169 163 172 176 177 184 186 196 198 197 198 201 205 209 210 211
222 237 247 242 249 221 206 205 203 213 216 222 212 202 199 195 187 186 185 175 154 177 169 172 179 185 188 188 193 199 202 206 208 209 218 216 217 218
226 238 234 254 227 207 200 200 201 215 219 234 231 214 208 201 198 190 190 189 181 177 181 175 183 186 186 190 203 207 206 209 219 220 222 220 224 228
229 222 231 233 208 200 204 210 218 222 217 200 212 239 238 217 198 203 193 190 182 177 184 181 183 189 191 202 217 212 215 220 227 225 226 228 233 239
208 207 209 209 191 195 198 215 214 209 193 182 192 225 209 204 201 198 194 190 182 188 189 200 194 192 202 207 217 221 224 226 237 231 230 232 238 249
193 206 205 197 196 198 202 215 209 198 203 204 203 192 183 191 193 200 203 197 196 189 194 201 206 196 205 219 225 226 228 227 238 235 231 234 244 256
193 200 211 202 191 189 189 194 208 214 203 203 203 189 181 186 192 197 205 215 219 198 202 202 200 204 207 220 237 236 232 234 239 236 237 242 249 261
191 205 223 216 199 198 203 197 199 210 206 200 196 187 180 188 193 200 209 218 223 228 220 204 209 214 215 224 251 247 243 239 238 238 244 250 255 260
199 205 215 212 210 207 200 204 195 202 211 218 197 195 194 195 196 199 207 211 218 214 217 223 217 224 227 237 241 262 238 236 242 248 248 254 262 266
197 203 205 207 210 202 207 197 200 211 219 216 215 207 205 199 203 207 203 213 203 210 211 221 222 229 232 234 233 245 236 229 240 242 248 254 265 268
206 210 217 210 204 191 203 204 198 200 211 227 210 201 203 200 206 206 208 204 210 205 212 221 217 206 218 230 229 237 240 247 243 253 264 270 267 273
208 222 222 217 211 201 203 195 198 201 205 227 210 193 196 194 201 202 196 198 193 205 215 210 215 213 223 234 231 233 243 256 259 262 267 275 278 279
206 209 209 217 211 211 206 212 208 199 200 212 216 195 195 197 195 189 189 201 206 211 217 220 229 225 223 235 239 247 262 271 271 267 268 275 280 293
213 203 209 214 222 214 213 217 206 203 198 205 213 203 198 197 200 197 195 208 199 205 214 223 230 225 220 241 265 268 268 271 271 275 279 274 280 290
158 178 196 202 195 202 205 211 220 200 195 205 200 206 200 202 209 206 208 214 206 208 217 228 223 219 239 265 274 273 263 278 283 287 290 290 295 298
147 155 166 169 190 193 191 197 195 177 186 205 202 209 204 208 211 216 218 220 215 215 220 205 209 241 255 266 279 291 295 286 284 286 288 291 295 297
109 120 145 132 146 165 174 162 171 178 188 198 198 202 208 213 216 220 231 240 231 231 241 238 256 260 265 276 286 291 295 295 301 299 293 290 295 299
Wind_Speed_850mb
27 31 30 28 27 27 28 26 21 19 17 14 11 14 19 27 21 24 25 25 23 25 28 30 28 30 29 31 30 35 42 34 25 23 24 25 25 26
29 29 27 24 24 25 25 25 21 20 16 12 12 9 19 21 26 21 23 23 23 27 29 29 31 38 36 31 32 40 36 29 25 26 25 24 24 23
27 25 21 22 22 22 23 23 20 20 21 18 15 13 21 24 26 29 22 22 25 26 27 30 35 39 41 34 39 37 27 27 27 25 25 24 22 24
22 22 19 20 23 22 24 24 23 19 14 16 17 17 23 23 25 30 25 23 24 25 28 27 33 37 34 35 39 32 28 24 29 26 23 22 24 24
17 16 15 20 24 23 22 22 28 25 17 15 15 20 25 28 33 33 30 24 24 25 29 29 34 36 35 37 33 31 27 28 26 26 24 22 22 22
19 14 15 19 22 22 21 21 26 29 22 16 15 24 28 31 30 32 32 25 26 30 33 34 35 27 27 32 36 32 29 28 27 26 24 24 24 23
24 18 17 17 17 19 22 23 29 27 26 20 20 28 32 36 33 34 41 32 30 36 38 41 38 34 32 36 34 34 29 28 24 24 24 26 26 25
21 18 19 18 19 21 21 24 28 26 29 27 27 33 39 39 37 37 40 40 40 38 44 43 34 37 36 37 34 33 29 30 25 28 27 27 27 25
18 17 18 18 18 25 24 22 25 24 21 19 25 34 38 43 40 38 39 42 45 46 42 39 47 40 37 34 34 32 30 27 23 29 29 29 28 28
19 19 16 13 18 27 26 23 24 22 20 21 17 19 26 37 44 38 43 37 36 45 43 49 43 38 38 33 31 29 29 29 26 30 30 31 31 29
23 20 17 12 13 20 23 20 19 18 20 22 20 18 17 31 44 38 43 42 43 45 52 50 52 44 42 35 32 35 34 36 31 32 34 33 31 31
28 23 21 15 15 18 17 14 16 21 20 22 25 24 25 31 35 34 38 45 42 45 51 52 49 46 38 38 37 38 40 41 37 37 37 34 32 36
32 22 22 21 16 16 16 13 12 16 18 17 27 29 32 34 38 40 39 36 37 49 52 52 49 48 40 23 40 36 38 38 37 36 35 35 37 39
27 21 21 18 18 19 20 17 18 18 19 19 22 34 40 38 38 36 36 36 35 38 33 53 52 52 50 46 31 31 37 35 35 35 35 35 38 39
21 18 18 19 19 19 19 21 21 21 20 24 28 32 38 40 37 34 31 32 39 34 37 24 49 41 46 44 36 22 24 33 31 31 30 33 35 36
23 19 16 18 18 18 22 26 23 21 17 24 26 30 31 35 38 41 41 31 37 33 34 39 28 38 42 39 37 25 21 16 20 23 24 27 28 30
25 21 19 19 18 20 22 28 27 22 13 18 24 31 33 37 39 41 42 40 42 35 33 34 35 36 35 32 43 34 29 29 27 25 31 32 29 30
24 21 21 22 21 20 28 37 30 24 17 18 18 23 30 33 35 35 37 35 33 35 30 29 26 33 40 34 41 42 36 34 31 34 36 37 38 28
18 20 22 25 26 28 34 36 33 27 20 16 18 27 32 34 32 33 35 33 35 36 35 32 32 38 38 40 28 32 35 32 34 38 38 44 43 36
13 13 14 17 22 28 37 40 34 31 23 17 16 25 35 35 35 34 37 32 26 24 27 32 35 36 34 24 29 31 32 31 30 34 35 38 45 43
11 10 11 12 16 23 27 34 38 34 22 18 22 18 28 34 36 36 38 34 31 26 21 20 23 22 28 31 41 30 20 24 28 33 36 43 49 54
11 9 9 9 14 17 25 23 25 23 18 17 25 23 18 24 26 28 31 33 32 29 22 21 18 21 29 35 38 39 36 30 31 36 41 47 54 63
14 11 11 10 16 24 23 21 23 19 14 14 25 29 23 24 25 25 26 25 27 33 30 25 25 30 33 36 42 44 47 41 42 44 41 38 46 60
Wind_Direction_850mb
241 250 252 252 253 251 250 258 260 259 279 272 257 222 203 202 202 190 192 198 207 207 200 198 192 197 192 195 188 182 186 173 183 184 178 180 178 174
246 245 248 245 246 244 245 250 254 246 253 263 255 229 200 186 186 179 181 194 195 193 195 194 184 190 190 195 184 183 184 183 184 177 181 178 177 173
239 239 237 243 239 240 242 243 244 240 250 248 241 222 199 193 189 173 176 178 186 188 185 186 187 180 184 194 177 177 182 184 181 181 182 179 174 180
227 229 228 236 239 245 245 242 231 231 235 229 222 203 189 195 195 183 183 173 177 181 179 176 176 174 182 181 176 177 184 189 186 182 186 177 178 188
199 205 231 239 240 253 243 235 222 211 215 220 215 198 189 189 191 196 188 175 173 175 171 170 176 182 194 177 182 183 190 186 188 186 185 183 187 194
201 221 235 253 250 243 239 224 207 204 209 213 211 200 194 184 188 190 173 180 176 169 170 167 172 181 185 175 182 189 193 191 190 194 197 197 201 201
217 231 253 253 246 236 223 216 204 205 207 209 208 198 196 187 190 187 191 184 175 173 169 163 172 176 177 184 186 196 198 197 198 201 205 209 210 211
222 237 247 242 249 221 206 205 203 213 216 222 212 202 199 195 187 186 185 175 154 177 169 172 179 185 188 188 193 199 202 206 208 209 218 216 217 218
226 238 234 254 227 207 200 200 201 215 219 234 231 214 208 201 198 190 190 189 181 177 181 175 183 186 186 190 203 207 206 209 219 220 222 220 224 228
229 222 231 233 208 200 204 210 218 222 217 200 212 239 238 217 198 203 193 190 182 177 184 181 183 189 191 202 217 212 215 220 227 225 226 228 233 239
208 207 209 209 191 195 198 215 214 209 193 182 192 225 209 204 201 198 194 190 182 188 189 200 194 192 202 207 217 221 224 226 237 231 230 232 238 249
193 206 205 197 196 198 202 215 209 198 203 204 203 192 183 191 193 200 203 197 196 189 194 201 206 196 205 219 225 226 228 227 238 235 231 234 244 256
193 200 211 202 191 189 189 194 208 214 203 203 203 189 181 186 192 197 205 215 219 198 202 202 200 204 207 220 237 236 232 234 239 236 237 242 249 261
191 205 223 216 199 198 203 197 199 210 206 200 196 187 180 188 193 200 209 218 223 228 220 204 209 214 215 224 251 247 243 239 238 238 244 250 255 260
199 205 215 212 210 207 200 204 195 202 211 218 197 195 194 195 196 199 207 211 218 214 217 223 217 224 227 237 241 262 238 236 242 248 248 254 262 266
197 203 205 207 210 202 207 197 200 211 219 216 215 207 205 199 203 207 203 213 203 210 211 221 222 229 232 234 233 245 236 229 240 242 248 254 265 268
206 210 217 210 204 191 203 204 198 200 211 227 210 201 203 200 206 206 208 204 210 205 212 221 217 206 218 230 229 237 240 247 243 253 264 270 267 273
208 222 222 217 211 201 203 195 198 201 205 227 210 193 196 194 201 202 196 198 193 205 215 210 215 213 223 234 231 233 243 256 259 262 267 275 278 279
206 209 209 217 211 211 206 212 208 199 200 212 216 195 195 197 195 189 189 201 206 211 217 220 229 225 223 235 239 247 262 271 271 267 268 275 280 293
213 203 209 214 222 214 213 217 206 203 198 205 213 203 198 197 200 197 195 208 199 205 214 223 230 225 220 241 265 268 268 271 271 275 279 274 280 290
158 178 196 202 195 202 205 211 220 200 195 205 200 206 200 202 209 206 208 214 206 208 217 228 223 219 239 265 274 273 263 278 283 287 290 290 295 298
147 155 166 169 190 193 191 197 195 177 186 205 202 209 204 208 211 216 218 220 215 215 220 205 209 241 255 266 279 291 295 286 284 286 288 291 295 297
109 120 145 132 146 165 174 162 171 178 188 198 198 202 208 213 216 220 231 240 231 231 241 238 256 260 265 276 286 291 295 295 301 299 293 290 295 299